Time,TemperatureF,DewpointF,PressureIn,WindDirection,WindDirectionDegrees,WindSpeedMPH,WindSpeedGustMPH,Humidity,HourlyPrecipIn,Conditions,Clouds,dailyrainin,SoftwareType,DateUTC
2013-03-31 00:02:00,34.0,-99.9,-100.00,West,260,2.0,7.0,87,0.00,,,0.00,,2013-03-31 04:02:00,
2013-03-31 00:13:00,34.0,30.0,-100.00,WSW,255,2.0,7.0,87,0.00,,,0.00,,2013-03-31 04:13:00,
2013-03-31 00:23:00,34.0,30.0,-100.00,West,270,2.0,6.0,87,0.00,,,0.00,,2013-03-31 04:23:00,
2013-03-31 00:32:00,33.0,30.0,-100.00,West,275,2.0,7.0,87,0.00,,,0.00,,2013-03-31 04:32:00,
2013-03-31 00:42:00,33.0,30.0,-100.00,West,280,2.0,6.0,87,0.00,,,0.00,,2013-03-31 04:42:00,
2013-03-31 00:52:00,33.0,30.0,-100.00,WSW,240,2.0,7.0,88,0.00,,,0.00,,2013-03-31 04:52:00,
2013-03-31 01:02:00,33.0,30.0,-100.00,West,275,2.0,6.0,88,0.00,,,0.00,,2013-03-31 05:02:00,
2013-03-31 01:12:00,33.0,30.0,-100.00,WNW,285,2.0,10.0,88,0.00,,,0.00,,2013-03-31 05:12:00,
2013-03-31 01:22:00,33.0,30.0,-100.00,West,260,2.0,6.0,88,0.00,,,0.00,,2013-03-31 05:22:00,
2013-03-31 01:32:00,33.0,30.0,-100.00,NW,305,2.0,7.0,89,0.00,,,0.00,,2013-03-31 05:32:00,
2013-03-31 01:42:00,33.0,30.0,-100.00,WNW,300,2.0,6.0,88,0.00,,,0.00,,2013-03-31 05:42:00,
2013-03-31 01:52:00,33.0,30.0,-100.00,WNW,285,3.0,7.0,88,0.00,,,0.00,,2013-03-31 05:52:00,
2013-03-31 02:02:00,33.0,30.0,-100.00,WSW,250,2.0,7.0,88,0.00,,,0.00,,2013-03-31 06:02:00,
2013-03-31 02:12:00,33.0,30.0,-100.00,WNW,300,2.0,5.0,88,0.00,,,0.00,,2013-03-31 06:12:00,
2013-03-31 02:22:00,33.0,30.0,-100.00,West,275,4.0,9.0,88,0.00,,,0.00,,2013-03-31 06:22:00,
2013-03-31 02:32:00,33.0,30.0,-100.00,West,260,3.0,7.0,88,0.00,,,0.00,,2013-03-31 06:32:00,
2013-03-31 02:42:00,33.0,30.0,-100.00,West,265,3.0,7.0,88,0.00,,,0.00,,2013-03-31 06:42:00,
2013-03-31 02:52:00,33.0,30.0,-100.00,North,10,2.0,7.0,88,0.00,,,0.00,,2013-03-31 06:52:00,
2013-03-31 03:02:00,33.0,30.0,-100.00,West,280,4.0,9.0,88,0.00,,,0.00,,2013-03-31 07:02:00,
2013-03-31 03:12:00,33.0,30.0,-100.00,WNW,300,4.0,10.0,88,0.00,,,0.00,,2013-03-31 07:12:00,
2013-03-31 03:22:00,33.0,30.0,-100.00,West,260,2.0,9.0,88,0.00,,,0.00,,2013-03-31 07:22:00,
2013-03-31 03:32:00,33.0,30.0,-100.00,West,280,1.0,6.0,88,0.00,,,0.00,,2013-03-31 07:32:00,
2013-03-31 03:42:00,33.0,30.0,-100.00,WNW,290,4.0,6.0,88,0.00,,,0.00,,2013-03-31 07:42:00,
2013-03-31 03:52:00,32.0,30.0,-100.00,West,265,4.0,9.0,88,0.00,,,0.00,,2013-03-31 07:52:00,
2013-03-31 04:02:00,32.0,28.0,-100.00,West,280,3.0,9.0,89,0.00,,,0.00,,2013-03-31 08:02:00,
2013-03-31 04:12:00,32.0,28.0,-100.00,WSW,250,2.0,8.0,89,0.00,,,0.00,,2013-03-31 08:12:00,
2013-03-31 04:22:00,31.0,28.0,-100.00,West,275,3.0,8.0,90,0.00,,,0.00,,2013-03-31 08:22:00,
2013-03-31 04:32:00,31.0,28.0,-100.00,WNW,290,4.0,10.0,90,0.00,,,0.00,,2013-03-31 08:32:00,
2013-03-31 04:42:00,32.0,30.0,-100.00,NW,305,6.0,12.0,91,0.00,,,0.00,,2013-03-31 08:42:00,
2013-03-31 04:52:00,32.0,30.0,-100.00,WSW,245,4.0,9.0,91,0.00,,,0.00,,2013-03-31 08:52:00,
2013-03-31 05:02:00,32.0,30.0,-100.00,WSW,255,4.0,11.0,91,0.00,,,0.00,,2013-03-31 09:02:00,
2013-03-31 05:12:00,32.0,30.0,-100.00,WNW,290,4.0,7.0,91,0.00,,,0.00,,2013-03-31 09:12:00,
2013-03-31 05:22:00,32.0,30.0,-100.00,WSW,240,4.0,9.0,91,0.00,,,0.00,,2013-03-31 09:22:00,
2013-03-31 05:33:00,32.0,30.0,-100.00,West,260,5.0,11.0,91,0.00,,,0.00,,2013-03-31 09:33:00,
2013-03-31 05:42:00,32.0,30.0,-100.00,WSW,255,4.0,9.0,91,0.00,,,0.00,,2013-03-31 09:42:00,
2013-03-31 05:53:00,32.0,30.0,-100.00,West,280,4.0,9.0,91,0.00,,,0.00,,2013-03-31 09:53:00,
2013-03-31 06:03:00,32.0,30.0,-100.00,WSW,245,4.0,9.0,91,0.00,,,0.00,,2013-03-31 10:03:00,
2013-03-31 06:13:00,33.0,30.0,-100.00,West,275,5.0,9.0,91,0.00,,,0.00,,2013-03-31 10:13:00,
2013-03-31 06:23:00,33.0,30.0,-100.00,West,260,4.0,8.0,90,0.00,,,0.00,,2013-03-31 10:23:00,
2013-03-31 06:32:00,33.0,30.0,-100.00,West,270,6.0,9.0,90,0.00,,,0.00,,2013-03-31 10:32:00,
2013-03-31 06:42:00,33.0,30.0,-100.00,WSW,255,6.0,9.0,90,0.00,,,0.00,,2013-03-31 10:42:00,
2013-03-31 06:52:00,33.0,30.0,-100.00,West,260,6.0,7.0,90,0.00,,,0.00,,2013-03-31 10:52:00,
2013-03-31 07:02:00,33.0,30.0,-100.00,West,260,6.0,11.0,89,0.00,,,0.00,,2013-03-31 11:02:00,
2013-03-31 07:12:00,33.0,30.0,-100.00,WSW,255,6.0,11.0,88,0.00,,,0.00,,2013-03-31 11:12:00,
2013-03-31 07:23:00,33.0,30.0,-100.00,WSW,255,4.0,9.0,88,0.00,,,0.00,,2013-03-31 11:23:00,
2013-03-31 07:32:00,33.0,30.0,-100.00,West,280,4.0,9.0,88,0.00,,,0.00,,2013-03-31 11:32:00,
2013-03-31 07:42:00,33.0,30.0,-100.00,WSW,245,6.0,10.0,87,0.00,,,0.00,,2013-03-31 11:42:00,
2013-03-31 07:52:00,34.0,30.0,-100.00,West,280,4.0,11.0,87,0.00,,,0.00,,2013-03-31 11:52:00,
2013-03-31 08:02:00,34.0,30.0,-100.00,West,260,4.0,12.0,87,0.00,,,0.00,,2013-03-31 12:02:00,
2013-03-31 08:12:00,34.0,30.0,-100.00,WNW,285,6.0,12.0,87,0.00,,,0.00,,2013-03-31 12:12:00,
2013-03-31 08:22:00,34.0,30.0,-100.00,West,275,5.0,12.0,86,0.00,,,0.00,,2013-03-31 12:22:00,
2013-03-31 08:33:00,34.0,30.0,-100.00,West,275,7.0,19.0,85,0.00,,,0.00,,2013-03-31 12:33:00,
2013-03-31 08:42:00,34.0,30.0,-100.00,WNW,295,7.0,14.0,83,0.00,,,0.00,,2013-03-31 12:42:00,
2013-03-31 08:52:00,34.0,30.0,-100.00,WNW,295,4.0,13.0,83,0.00,,,0.00,,2013-03-31 12:52:00,
2013-03-31 09:02:00,34.0,30.0,-100.00,NW,310,4.0,10.0,83,0.00,,,0.00,,2013-03-31 13:02:00,
2013-03-31 09:12:00,35.0,30.0,-100.00,WNW,300,3.0,9.0,82,0.00,,,0.00,,2013-03-31 13:12:00,
2013-03-31 09:22:00,35.0,30.0,-100.00,West,270,6.0,11.0,82,0.00,,,0.00,,2013-03-31 13:22:00,
2013-03-31 09:32:00,35.0,30.0,-100.00,West,270,3.0,10.0,82,0.00,,,0.00,,2013-03-31 13:32:00,
2013-03-31 09:42:00,35.0,30.0,-100.00,WNW,300,6.0,12.0,80,0.00,,,0.00,,2013-03-31 13:42:00,
2013-03-31 09:52:00,35.0,28.0,-100.00,NNW,330,5.0,12.0,78,0.00,,,0.00,,2013-03-31 13:52:00,
2013-03-31 10:02:00,35.0,28.0,-100.00,North,0,4.0,16.0,77,0.00,,,0.00,,2013-03-31 14:02:00,
2013-03-31 10:12:00,36.0,28.0,-100.00,West,265,3.0,15.0,76,0.00,,,0.00,,2013-03-31 14:12:00,
2013-03-31 10:22:00,36.0,28.0,-100.00,NNW,335,4.0,14.0,73,0.00,,,0.00,,2013-03-31 14:22:00,
2013-03-31 10:32:00,36.0,28.0,-100.00,WNW,295,3.0,16.0,73,0.00,,,0.00,,2013-03-31 14:32:00,
2013-03-31 10:42:00,36.0,27.0,-100.00,WNW,300,6.0,16.0,68,0.00,,,0.00,,2013-03-31 14:42:00,
2013-03-31 10:52:00,36.0,27.0,-100.00,WNW,300,7.0,16.0,69,0.00,,,0.00,,2013-03-31 14:52:00,
2013-03-31 11:02:00,36.0,28.0,-100.00,WNW,295,6.0,14.0,70,0.00,,,0.00,,2013-03-31 15:02:00,
2013-03-31 11:12:00,36.0,28.0,-100.00,NW,305,7.0,16.0,72,0.00,,,0.00,,2013-03-31 15:12:00,
2013-03-31 11:22:00,36.0,27.0,-100.00,WNW,300,6.0,11.0,70,0.00,,,0.00,,2013-03-31 15:22:00,
2013-03-31 11:33:00,37.0,27.0,-100.00,NNW,335,3.0,16.0,63,0.00,,,0.00,,2013-03-31 15:33:00,
2013-03-31 11:43:00,37.0,23.0,-100.00,NNE,30,3.0,17.0,56,0.00,,,0.00,,2013-03-31 15:43:00,
2013-03-31 11:53:00,36.0,21.0,-100.00,North,355,8.0,21.0,56,0.00,,,0.00,,2013-03-31 15:53:00,
2013-03-31 12:03:00,35.0,19.0,-100.00,NW,320,5.0,20.0,53,0.00,,,0.00,,2013-03-31 16:03:00,
2013-03-31 12:13:00,36.0,21.0,-100.00,North,5,6.0,14.0,52,0.00,,,0.00,,2013-03-31 16:13:00,
2013-03-31 12:23:00,36.0,18.0,-100.00,NNW,345,7.0,20.0,48,0.00,,,0.00,,2013-03-31 16:23:00,
2013-03-31 12:33:00,36.0,19.0,-100.00,NW,305,7.0,17.0,49,0.00,,,0.00,,2013-03-31 16:33:00,
2013-03-31 12:42:00,35.0,18.0,-100.00,North,350,10.0,19.0,48,0.00,,,0.00,,2013-03-31 16:42:00,
2013-03-31 12:53:00,35.0,16.0,-100.00,WNW,295,7.0,18.0,45,0.00,,,0.00,,2013-03-31 16:53:00,
2013-03-31 13:03:00,36.0,16.0,-100.00,NW,315,6.0,19.0,44,0.00,,,0.00,,2013-03-31 17:03:00,
2013-03-31 13:12:00,35.0,16.0,-100.00,North,10,5.0,16.0,44,0.00,,,0.00,,2013-03-31 17:12:00,
2013-03-31 13:22:00,35.0,18.0,-100.00,NW,315,7.0,16.0,49,0.00,,,0.00,,2013-03-31 17:22:00,
2013-03-31 13:32:00,35.0,16.0,-100.00,NNW,335,7.0,16.0,45,0.00,,,0.00,,2013-03-31 17:32:00,
2013-03-31 13:42:00,36.0,14.0,-100.00,North,355,2.0,23.0,42,0.00,,,0.00,,2013-03-31 17:42:00,
2013-03-31 13:52:00,35.0,14.0,-100.00,WNW,290,6.0,21.0,42,0.00,,,0.00,,2013-03-31 17:52:00,
2013-03-31 14:02:00,35.0,14.0,-100.00,West,275,7.0,17.0,41,0.00,,,0.00,,2013-03-31 18:02:00,
2013-03-31 14:12:00,35.0,14.0,-100.00,NNW,345,8.0,19.0,41,0.00,,,0.00,,2013-03-31 18:12:00,
2013-03-31 14:22:00,35.0,12.0,-100.00,North,0,6.0,18.0,39,0.00,,,0.00,,2013-03-31 18:22:00,
2013-03-31 14:32:00,35.0,12.0,-100.00,North,0,6.0,19.0,38,0.00,,,0.00,,2013-03-31 18:32:00,
2013-03-31 14:42:00,35.0,10.0,-100.00,WNW,300,8.0,19.0,36,0.00,,,0.00,,2013-03-31 18:42:00,
2013-03-31 14:52:00,35.0,12.0,-100.00,WNW,295,6.0,19.0,36,0.00,,,0.00,,2013-03-31 18:52:00,
2013-03-31 15:03:00,36.0,14.0,-100.00,NE,45,2.0,18.0,40,0.00,,,0.00,,2013-03-31 19:03:00,
2013-03-31 15:12:00,35.0,12.0,-100.00,West,270,6.0,17.0,38,0.00,,,0.00,,2013-03-31 19:12:00,
2013-03-31 15:22:00,35.0,9.0,-100.00,NW,325,6.0,15.0,34,0.00,,,0.00,,2013-03-31 19:22:00,
2013-03-31 15:32:00,36.0,12.0,-100.00,ENE,60,4.0,15.0,38,0.00,,,0.00,,2013-03-31 19:32:00,
2013-03-31 15:42:00,36.0,14.0,-100.00,NW,320,3.0,14.0,41,0.00,,,0.00,,2013-03-31 19:42:00,
2013-03-31 15:53:00,35.0,14.0,-100.00,NNW,330,4.0,17.0,41,0.00,,,0.00,,2013-03-31 19:53:00,
2013-03-31 16:02:00,35.0,12.0,-100.00,NNW,335,6.0,16.0,38,0.00,,,0.00,,2013-03-31 20:02:00,
2013-03-31 16:12:00,35.0,12.0,-100.00,NW,310,8.0,16.0,39,0.00,,,0.00,,2013-03-31 20:12:00,
2013-03-31 16:22:00,35.0,12.0,-100.00,NW,315,6.0,14.0,39,0.00,,,0.00,,2013-03-31 20:22:00,
2013-03-31 16:33:00,35.0,14.0,-100.00,NNW,330,7.0,17.0,41,0.00,,,0.00,,2013-03-31 20:33:00,
2013-03-31 16:43:00,35.0,14.0,-100.00,NW,310,4.0,18.0,40,0.00,,,0.00,,2013-03-31 20:43:00,
2013-03-31 16:52:00,35.0,12.0,-100.00,NW,305,9.0,17.0,40,0.00,,,0.00,,2013-03-31 20:52:00,
2013-03-31 17:02:00,35.0,12.0,-100.00,NW,315,5.0,14.0,39,0.00,,,0.00,,2013-03-31 21:02:00,
2013-03-31 17:12:00,34.0,14.0,-100.00,NW,315,6.0,16.0,41,0.00,,,0.00,,2013-03-31 21:12:00,
2013-03-31 17:22:00,35.0,14.0,-100.00,WNW,300,5.0,14.0,43,0.00,,,0.00,,2013-03-31 21:22:00,
2013-03-31 17:33:00,34.0,14.0,-100.00,NW,315,7.0,16.0,43,0.00,,,0.00,,2013-03-31 21:33:00,
2013-03-31 17:43:00,34.0,14.0,-100.00,NNW,345,7.0,16.0,43,0.00,,,0.00,,2013-03-31 21:43:00,
2013-03-31 17:53:00,34.0,14.0,-100.00,WNW,295,6.0,13.0,43,0.00,,,0.00,,2013-03-31 21:53:00,
2013-03-31 18:03:00,34.0,16.0,-100.00,NW,305,5.0,17.0,46,0.00,,,0.00,,2013-03-31 22:03:00,
2013-03-31 18:13:00,34.0,14.0,-100.00,WNW,285,6.0,17.0,45,0.00,,,0.00,,2013-03-31 22:13:00,
2013-03-31 18:23:00,34.0,14.0,-100.00,NNW,335,6.0,17.0,44,0.00,,,0.00,,2013-03-31 22:23:00,
2013-03-31 18:33:00,33.0,16.0,-100.00,NNW,345,6.0,16.0,47,0.00,,,0.00,,2013-03-31 22:33:00,
2013-03-31 18:42:00,33.0,14.0,-100.00,West,270,4.0,16.0,45,0.00,,,0.00,,2013-03-31 22:42:00,
2013-03-31 18:52:00,33.0,14.0,-100.00,WNW,290,7.0,16.0,44,0.00,,,0.00,,2013-03-31 22:52:00,
2013-03-31 19:03:00,33.0,14.0,-100.00,NW,320,10.0,16.0,45,0.00,,,0.00,,2013-03-31 23:03:00,
2013-03-31 19:13:00,33.0,14.0,-100.00,West,280,4.0,16.0,45,0.00,,,0.00,,2013-03-31 23:13:00,
2013-03-31 19:22:00,32.0,14.0,-100.00,NW,320,7.0,17.0,47,0.00,,,0.00,,2013-03-31 23:22:00,
2013-03-31 19:32:00,32.0,14.0,-100.00,NW,305,7.0,14.0,48,0.00,,,0.00,,2013-03-31 23:32:00,
2013-03-31 19:42:00,32.0,14.0,-100.00,North,10,6.0,15.0,49,0.00,,,0.00,,2013-03-31 23:42:00,
2013-03-31 19:52:00,31.0,14.0,-100.00,NW,305,7.0,17.0,48,0.00,,,0.00,,2013-03-31 23:52:00,
2013-03-31 20:02:00,31.0,14.0,-100.00,WNW,295,7.0,15.0,49,0.00,,,0.00,,2013-04-01 00:02:00,
2013-03-31 20:12:00,30.0,14.0,-100.00,NNW,330,4.0,15.0,49,0.00,,,0.00,,2013-04-01 00:12:00,
2013-03-31 20:22:00,29.0,14.0,-100.00,NW,325,4.0,11.0,53,0.00,,,0.00,,2013-04-01 00:22:00,
2013-03-31 20:32:00,28.0,14.0,-100.00,North,0,5.0,16.0,54,0.00,,,0.00,,2013-04-01 00:32:00,
2013-03-31 20:42:00,28.0,14.0,-100.00,NW,320,5.0,19.0,55,0.00,,,0.00,,2013-04-01 00:42:00,
2013-03-31 20:52:00,27.0,14.0,-100.00,WNW,295,6.0,14.0,56,0.00,,,0.00,,2013-04-01 00:52:00,
2013-03-31 21:02:00,26.0,12.0,-100.00,NW,305,6.0,15.0,55,0.00,,,0.00,,2013-04-01 01:02:00,
2013-03-31 21:12:00,26.0,12.0,-100.00,NNW,335,3.0,12.0,57,0.00,,,0.00,,2013-04-01 01:12:00,
2013-03-31 21:22:00,26.0,12.0,-100.00,WNW,300,4.0,16.0,58,0.00,,,0.00,,2013-04-01 01:22:00,
2013-03-31 21:32:00,25.0,12.0,-100.00,NW,310,4.0,15.0,59,0.00,,,0.00,,2013-04-01 01:32:00,
2013-03-31 21:42:00,25.0,12.0,-100.00,West,280,5.0,14.0,59,0.00,,,0.00,,2013-04-01 01:42:00,
2013-03-31 21:52:00,25.0,14.0,-100.00,NNW,345,1.0,12.0,61,0.00,,,0.00,,2013-04-01 01:52:00,
2013-03-31 22:02:00,24.0,14.0,-100.00,NW,315,2.0,11.0,61,0.00,,,0.00,,2013-04-01 02:02:00,
2013-03-31 22:12:00,24.0,12.0,-100.00,West,275,5.0,11.0,61,0.00,,,0.00,,2013-04-01 02:12:00,
2013-03-31 22:22:00,24.0,12.0,-100.00,WNW,300,4.0,14.0,61,0.00,,,0.00,,2013-04-01 02:22:00,
2013-03-31 22:32:00,24.0,12.0,-100.00,West,275,6.0,11.0,61,0.00,,,0.00,,2013-04-01 02:32:00,
2013-03-31 22:42:00,24.0,12.0,-100.00,WNW,295,2.0,15.0,62,0.00,,,0.00,,2013-04-01 02:42:00,
2013-03-31 22:52:00,23.0,12.0,-100.00,NW,325,4.0,13.0,62,0.00,,,0.00,,2013-04-01 02:52:00,
2013-03-31 23:02:00,23.0,12.0,-100.00,NW,310,5.0,14.0,62,0.00,,,0.00,,2013-04-01 03:02:00,
2013-03-31 23:12:00,22.0,12.0,-100.00,WNW,300,4.0,11.0,63,0.00,,,0.00,,2013-04-01 03:12:00,
2013-03-31 23:22:00,22.0,12.0,-100.00,WNW,300,5.0,11.0,62,0.00,,,0.00,,2013-04-01 03:22:00,
2013-03-31 23:33:00,22.0,10.0,-100.00,NW,315,6.0,13.0,61,0.00,,,0.00,,2013-04-01 03:33:00,
2013-03-31 23:43:00,22.0,10.0,-100.00,West,280,5.0,9.0,63,0.00,,,0.00,,2013-04-01 03:43:00,
2013-03-31 23:53:00,22.0,10.0,-100.00,NW,315,4.0,9.0,64,0.00,,,0.00,,2013-04-01 03:53:00,